2022/01/26 23:33:00+0000,-41.52,-48.85,-32.34,-48.12,-53.07,-55.38
2022/01/26 23:33:52+0000,-41.12,-49.91,-11.95,-47.75,-53.16,-55.46
2022/01/26 23:34:44+0000,-40.73,-48.76,-32.59,-48.20,-53.26,-55.60
2022/01/26 23:35:36+0000,-40.71,-49.66,-31.57,-48.73,-53.19,-55.73
2022/01/26 23:36:28+0000,-40.56,-48.59,-32.00,-47.58,-53.91,-55.54
2022/01/26 23:37:20+0000,-40.31,-48.97,-11.15,-47.88,-53.26,-55.19
2022/01/26 23:38:12+0000,-40.53,-48.83,-32.01,-47.99,-53.02,-55.36
2022/01/26 23:39:04+0000,-41.38,-49.12,-32.10,-48.82,-52.80,-55.75
2022/01/26 23:39:57+0000,-41.50,-48.95,-11.14,-47.26,-53.88,-55.64
2022/01/26 23:40:49+0000,-41.78,-47.98,-11.30,-43.59,-54.33,-55.64
2022/01/26 23:41:47+0000,-38.22,-47.15,-11.22,-42.50,-52.79,-52.66
2022/01/26 23:42:39+0000,-39.63,-47.67,-32.17,-43.32,-48.85,-53.91
2022/01/26 23:43:31+0000,-38.24,-48.55,-32.16,-41.58,-51.59,-53.82
2022/01/26 23:44:23+0000,-38.18,-47.76,-32.32,-41.95,-51.93,-52.58
2022/01/26 23:45:15+0000,-40.12,-48.29,-31.96,-48.57,-53.07,-53.40
2022/01/26 23:46:07+0000,-40.08,-49.45,-11.72,-46.75,-51.15,-52.57
2022/01/26 23:46:59+0000,-40.14,-49.16,-32.31,-45.44,-52.24,-52.91
2022/01/26 23:47:51+0000,-40.82,-48.93,-32.34,-45.89,-52.89,-54.98
2022/01/26 23:48:43+0000,-39.57,-48.98,-32.42,-47.76,-52.04,-54.55
2022/01/26 23:49:35+0000,-40.62,-48.39,-11.00,-50.04,-50.52,-52.42
2022/01/26 23:50:27+0000,-40.08,-48.41,-31.92,-48.38,-51.86,-54.04
2022/01/26 23:51:25+0000,-40.58,-48.77,-31.58,-48.31,-52.89,-56.08
2022/01/26 23:52:17+0000,-40.27,-48.52,-31.65,-49.25,-53.16,-55.94
2022/01/26 23:53:09+0000,-39.95,-48.99,-11.07,-48.21,-53.17,-55.54
2022/01/26 23:54:02+0000,-41.00,-48.74,-11.56,-50.16,-52.86,-56.45
2022/01/26 23:54:54+0000,-39.99,-48.90,-31.22,-48.35,-52.99,-55.84
2022/01/26 23:55:46+0000,-40.30,-49.23,-31.62,-48.34,-53.32,-55.82
2022/01/26 23:56:38+0000,-40.10,-49.34,-11.74,-50.41,-53.14,-55.44
2022/01/26 23:57:30+0000,-40.19,-49.34,-31.53,-49.78,-52.95,-55.29
2022/01/26 23:58:22+0000,-41.71,-48.92,-31.22,-50.78,-52.95,-55.93
2022/01/26 23:59:14+0000,-41.72,-48.06,-32.00,-50.68,-53.03,-55.36
2022/01/27 00:00:06+0000,-42.28,-49.01,-11.93,-52.74,-52.32,-54.42
2022/01/27 00:01:08+0000,-42.43,-48.47,-11.02,-48.69,-52.33,-55.20
2022/01/27 00:02:00+0000,-40.96,-49.17,-11.66,-50.37,-53.27,-54.40
2022/01/27 00:02:52+0000,-40.75,-49.75,-31.58,-50.34,-52.61,-54.60
2022/01/27 00:03:44+0000,-40.94,-48.95,-31.65,-51.32,-52.90,-54.38
2022/01/27 00:04:36+0000,-40.00,-49.07,-11.26,-48.78,-52.94,-54.43
2022/01/27 00:05:28+0000,-40.24,-47.01,-11.02,-51.35,-51.86,-54.89
2022/01/27 00:06:20+0000,-39.99,-48.93,-32.21,-49.12,-52.16,-54.89
2022/01/27 00:07:13+0000,-38.80,-48.44,-31.85,-52.32,-51.58,-54.79
2022/01/27 00:08:05+0000,-39.44,-49.21,-31.64,-51.74,-52.22,-55.70
2022/01/27 00:08:57+0000,-39.60,-48.30,-32.19,-51.65,-52.41,-55.05
2022/01/27 00:09:49+0000,-39.42,-48.49,-32.14,-54.13,-53.01,-55.25
2022/01/27 00:10:41+0000,-39.35,-48.62,-32.00,-51.22,-52.20,-54.80
2022/01/27 00:11:40+0000,-39.29,-47.25,-31.79,-51.28,-51.71,-52.90
2022/01/27 00:12:32+0000,-40.34,-49.09,-31.41,-51.77,-51.12,-51.28
2022/01/27 00:13:24+0000,-40.15,-49.39,-31.69,-52.22,-50.75,-53.79
2022/01/27 00:14:16+0000,-40.09,-48.54,-31.91,-48.45,-51.49,-53.29
2022/01/27 00:15:08+0000,-39.41,-48.61,-31.75,-48.22,-51.28,-51.87
2022/01/27 00:16:00+0000,-40.06,-49.11,-31.68,-50.64,-52.45,-53.64
2022/01/27 00:16:52+0000,-39.45,-49.75,-31.24,-53.63,-50.49,-55.40
2022/01/27 00:17:44+0000,-39.70,-47.92,-31.39,-48.33,-52.04,-52.21
2022/01/27 00:18:36+0000,-39.78,-49.60,-31.66,-51.37,-50.89,-51.90
2022/01/27 00:19:28+0000,-39.21,-47.65,-31.90,-50.57,-50.58,-51.83
2022/01/27 00:20:20+0000,-39.51,-48.69,-32.10,-52.74,-50.96,-53.26
2022/01/27 00:21:20+0000,-40.22,-49.74,-31.49,-51.71,-49.37,-52.55
2022/01/27 00:22:12+0000,-39.27,-48.50,-31.55,-51.64,-50.43,-50.49
2022/01/27 00:23:04+0000,-38.91,-47.90,-32.08,-54.63,-51.05,-53.40
2022/01/27 00:23:56+0000,-40.00,-48.27,-32.03,-53.97,-51.19,-52.28
2022/01/27 00:24:48+0000,-39.79,-47.82,-31.63,-54.80,-50.59,-52.47
2022/01/27 00:25:40+0000,-39.49,-48.85,-31.71,-48.87,-51.91,-51.63
2022/01/27 00:26:32+0000,-39.65,-47.66,-31.59,-51.66,-51.48,-51.52
2022/01/27 00:27:25+0000,-39.92,-49.41,-31.38,-52.82,-51.57,-52.95
2022/01/27 00:28:17+0000,-39.74,-48.57,-31.87,-51.67,-51.40,-52.17
2022/01/27 00:29:09+0000,-40.05,-49.98,-31.44,-52.74,-51.64,-50.41
2022/01/27 00:30:01+0000,-40.57,-50.10,-32.10,-52.05,-51.78,-51.93
2022/01/27 00:31:05+0000,-40.13,-50.34,-32.01,-55.09,-52.72,-54.74
2022/01/27 00:31:57+0000,-40.50,-48.20,-31.98,-54.26,-52.52,-54.58
2022/01/27 00:32:49+0000,-40.16,-49.76,-32.04,-55.14,-52.23,-54.70
2022/01/27 00:33:41+0000,-38.61,-48.94,-31.93,-52.40,-52.15,-54.34
2022/01/27 00:34:33+0000,-38.79,-49.85,-31.65,-55.15,-52.15,-54.48
2022/01/27 00:35:25+0000,-39.07,-49.00,-31.87,-53.40,-52.34,-54.61
2022/01/27 00:36:17+0000,-38.85,-48.89,-32.37,-52.84,-52.22,-54.74
2022/01/27 00:37:09+0000,-38.39,-49.09,-32.01,-53.10,-52.26,-55.40
2022/01/27 00:38:01+0000,-38.36,-49.08,-32.41,-53.86,-51.46,-53.99
2022/01/27 00:38:53+0000,-38.06,-50.03,-31.64,-53.76,-51.48,-54.36
2022/01/27 00:39:46+0000,-40.22,-47.25,-32.30,-50.98,-51.56,-54.66
2022/01/27 00:40:38+0000,-39.35,-49.09,-31.67,-52.96,-51.87,-54.83
2022/01/27 00:41:36+0000,-39.22,-49.20,-31.90,-53.81,-52.04,-54.85
2022/01/27 00:42:28+0000,-38.17,-48.58,-32.06,-52.58,-51.55,-54.93
2022/01/27 00:43:20+0000,-40.62,-47.65,-31.36,-54.25,-51.53,-54.45
2022/01/27 00:44:12+0000,-39.99,-47.02,-31.74,-52.11,-52.04,-54.45
2022/01/27 00:45:04+0000,-39.08,-48.48,-32.04,-54.99,-52.38,-54.76
2022/01/27 00:45:56+0000,-39.32,-47.88,-31.32,-53.92,-51.82,-54.43
2022/01/27 00:46:48+0000,-40.25,-48.28,-32.33,-52.22,-52.17,-53.95
2022/01/27 00:47:40+0000,-38.89,-47.08,-31.45,-51.06,-52.47,-54.68
2022/01/27 00:48:32+0000,-40.73,-46.58,-32.10,-53.40,-51.59,-54.14
2022/01/27 00:49:24+0000,-39.75,-47.12,-31.97,-52.69,-51.96,-54.69
2022/01/27 00:50:16+0000,-38.71,-46.55,-31.79,-50.17,-51.46,-54.80
2022/01/27 00:51:20+0000,-40.00,-48.87,-32.08,-54.93,-52.11,-53.98
2022/01/27 00:52:12+0000,-39.26,-47.13,-11.79,-49.82,-51.74,-54.00
2022/01/27 00:53:04+0000,-38.18,-47.40,-11.24,-54.70,-51.54,-54.54
2022/01/27 00:53:56+0000,-38.38,-47.60,-31.88,-52.06,-52.00,-54.66
2022/01/27 00:54:48+0000,-39.34,-47.40,-32.74,-50.07,-51.87,-54.05
2022/01/27 00:55:40+0000,-38.80,-47.98,-11.47,-51.32,-52.17,-54.44
2022/01/27 00:56:32+0000,-37.98,-48.53,-32.24,-52.61,-51.63,-54.26
2022/01/27 00:57:24+0000,-39.27,-46.52,-31.82,-53.42,-52.18,-54.20
2022/01/27 00:58:16+0000,-37.80,-48.23,-32.38,-51.06,-52.30,-54.31
2022/01/27 00:59:08+0000,-38.94,-49.87,-11.17,-48.36,-52.44,-54.81
2022/01/27 01:00:00+0000,-38.68,-47.09,-31.89,-52.11,-51.69,-53.81
2022/01/27 01:00:59+0000,-38.16,-47.42,-31.66,-51.62,-52.45,-54.10
2022/01/27 01:01:51+0000,-38.35,-48.45,-32.09,-54.08,-52.05,-53.93
2022/01/27 01:02:43+0000,-38.68,-46.82,-31.68,-50.52,-52.27,-53.63
2022/01/27 01:03:35+0000,-38.72,-49.18,-32.00,-52.76,-51.56,-53.72
2022/01/27 01:04:27+0000,-39.78,-47.73,-33.04,-52.72,-51.44,-54.30
2022/01/27 01:05:19+0000,-38.37,-46.26,-11.20,-54.06,-52.14,-53.56
2022/01/27 01:06:11+0000,-39.38,-47.50,-32.54,-52.85,-49.99,-53.88
2022/01/27 01:07:03+0000,-38.11,-47.22,-32.29,-54.75,-51.61,-54.66
2022/01/27 01:07:55+0000,-38.78,-47.22,-10.87,-51.14,-51.65,-54.15
2022/01/27 01:08:47+0000,-39.52,-45.98,-11.41,-53.26,-52.06,-53.99
2022/01/27 01:09:40+0000,-38.92,-47.36,-32.25,-53.45,-52.33,-54.21
2022/01/27 01:10:32+0000,-37.82,-46.45,-32.29,-51.77,-51.75,-54.17
2022/01/27 01:11:29+0000,-38.84,-46.84,-32.19,-52.89,-51.98,-54.61
2022/01/27 01:12:21+0000,-38.86,-49.26,-32.12,-50.20,-52.11,-53.85
2022/01/27 01:13:13+0000,-37.72,-46.39,-31.78,-53.67,-51.36,-54.42
2022/01/27 01:14:05+0000,-38.61,-49.16,-31.64,-53.72,-51.66,-54.43
2022/01/27 01:14:57+0000,-38.88,-46.17,-32.76,-51.68,-51.23,-53.70
2022/01/27 01:15:49+0000,-37.90,-47.21,-30.97,-53.69,-51.93,-54.36
2022/01/27 01:16:41+0000,-39.38,-47.57,-31.55,-54.05,-51.61,-55.01
2022/01/27 01:17:33+0000,-39.40,-47.34,-32.15,-54.80,-51.46,-54.12
2022/01/27 01:18:25+0000,-38.66,-46.94,-31.66,-54.87,-51.02,-54.34
2022/01/27 01:19:17+0000,-38.88,-47.14,-31.86,-54.35,-51.20,-54.37
2022/01/27 01:20:10+0000,-39.38,-47.79,-31.83,-54.79,-52.03,-54.17
2022/01/27 01:21:07+0000,-39.61,-49.91,-31.73,-54.54,-51.64,-54.17
2022/01/27 01:21:59+0000,-37.86,-47.82,-32.65,-51.68,-52.05,-54.50
2022/01/27 01:22:51+0000,-39.36,-48.96,-31.73,-53.84,-51.40,-53.99
2022/01/27 01:23:43+0000,-39.30,-48.98,-32.34,-54.42,-51.48,-55.43
2022/01/27 01:24:35+0000,-39.76,-48.15,-31.66,-52.45,-51.93,-54.40
2022/01/27 01:25:28+0000,-39.01,-47.56,-32.10,-54.32,-51.50,-54.58
2022/01/27 01:26:20+0000,-38.12,-48.28,-31.63,-54.88,-51.32,-54.71
2022/01/27 01:27:12+0000,-38.14,-46.38,-32.15,-53.04,-51.44,-54.80
2022/01/27 01:28:04+0000,-37.65,-47.54,-31.62,-54.83,-51.31,-55.03
2022/01/27 01:28:56+0000,-38.13,-47.87,-32.83,-54.40,-51.89,-54.24
2022/01/27 01:29:48+0000,-37.69,-46.91,-33.01,-53.87,-51.36,-54.57
2022/01/27 01:30:40+0000,-38.42,-47.29,-32.02,-54.00,-51.58,-54.18
2022/01/27 01:31:38+0000,-38.58,-47.72,-31.39,-54.72,-51.69,-54.27
2022/01/27 01:32:30+0000,-39.06,-47.57,-31.69,-51.35,-45.40,-54.78
2022/01/27 01:33:22+0000,-39.11,-47.73,-32.54,-53.19,-45.53,-54.55
2022/01/27 01:34:14+0000,-38.54,-45.69,-31.61,-52.66,-47.07,-54.75
2022/01/27 01:35:06+0000,-38.63,-48.20,-31.97,-52.79,-46.62,-54.98
2022/01/27 01:35:58+0000,-37.97,-46.84,-32.47,-53.03,-47.62,-54.24
2022/01/27 01:36:50+0000,-37.79,-46.06,-31.92,-53.33,-46.77,-54.84
2022/01/27 01:37:42+0000,-38.97,-45.74,-32.70,-53.83,-46.70,-54.41
2022/01/27 01:38:34+0000,-38.59,-46.19,-32.10,-53.30,-46.98,-54.51
2022/01/27 01:39:26+0000,-38.30,-45.79,-32.68,-53.45,-47.02,-54.22
2022/01/27 01:40:19+0000,-39.09,-45.87,-32.31,-53.37,-47.38,-54.66
2022/01/27 01:41:16+0000,-39.10,-45.46,-31.86,-53.92,-47.67,-52.74
2022/01/27 01:42:08+0000,-38.77,-46.25,-32.75,-53.73,-47.48,-54.27
2022/01/27 01:43:00+0000,-37.25,-45.22,-32.47,-53.65,-47.74,-53.80
2022/01/27 01:43:52+0000,-38.12,-45.60,-31.70,-52.39,-48.96,-54.00
2022/01/27 01:44:44+0000,-37.82,-44.53,-32.44,-53.22,-48.15,-54.44
2022/01/27 01:45:36+0000,-37.70,-46.39,-31.90,-53.21,-48.93,-54.53
2022/01/27 01:46:28+0000,-38.05,-44.85,-31.61,-53.55,-48.14,-54.30
2022/01/27 01:47:20+0000,-37.95,-45.42,-31.54,-53.61,-46.96,-54.63
2022/01/27 01:48:12+0000,-37.52,-44.78,-31.86,-53.64,-48.37,-54.77
2022/01/27 01:49:04+0000,-38.67,-45.84,-31.90,-52.99,-46.70,-54.78
2022/01/27 01:49:57+0000,-36.84,-45.55,-32.38,-52.43,-47.53,-54.51
2022/01/27 01:50:49+0000,-37.58,-44.84,-32.26,-53.26,-47.25,-54.75
2022/01/27 01:51:47+0000,-37.46,-45.54,-32.10,-51.79,-46.84,-54.66
2022/01/27 01:52:39+0000,-38.06,-46.78,-32.58,-53.06,-47.69,-54.97
2022/01/27 01:53:31+0000,-37.64,-46.52,-32.63,-53.41,-48.11,-54.49
2022/01/27 01:54:23+0000,-38.23,-48.17,-31.79,-53.05,-47.71,-54.10
2022/01/27 01:55:15+0000,-37.61,-45.93,-31.83,-52.40,-47.76,-53.89
2022/01/27 01:56:07+0000,-37.81,-48.63,-32.49,-51.93,-48.28,-54.36
2022/01/27 01:56:59+0000,-33.22,-46.16,-32.57,-52.44,-48.49,-54.97
2022/01/27 01:57:51+0000,-37.21,-47.09,-32.31,-52.88,-47.64,-54.82
2022/01/27 01:58:43+0000,-37.88,-46.62,-32.11,-52.35,-46.89,-54.47
2022/01/27 01:59:35+0000,-38.34,-44.05,-32.41,-52.65,-47.68,-54.90
2022/01/27 02:00:28+0000,-39.58,-44.29,-32.27,-52.02,-48.17,-54.26
2022/01/27 02:01:28+0000,-38.59,-44.58,-31.94,-52.35,-47.88,-54.10
2022/01/27 02:02:20+0000,-39.52,-48.69,-32.01,-52.14,-47.67,-54.13
2022/01/27 02:03:12+0000,-39.59,-46.49,-31.66,-52.16,-48.03,-54.70
2022/01/27 02:04:04+0000,-38.65,-44.02,-32.32,-52.38,-48.94,-54.66
2022/01/27 02:04:56+0000,-38.90,-44.69,-32.56,-52.94,-48.08,-54.23
2022/01/27 02:05:48+0000,-38.91,-46.29,-31.99,-52.36,-48.39,-53.90
2022/01/27 02:06:40+0000,-39.82,-46.80,-32.22,-52.74,-47.90,-54.76
2022/01/27 02:07:32+0000,-40.04,-43.76,-32.05,-52.43,-48.48,-54.67
2022/01/27 02:08:24+0000,-40.27,-45.31,-32.34,-52.94,-48.31,-54.72
2022/01/27 02:09:16+0000,-39.06,-46.79,-32.06,-52.44,-47.47,-54.28
2022/01/27 02:10:08+0000,-39.08,-45.94,-31.95,-52.53,-48.05,-54.43
2022/01/27 02:11:06+0000,-38.65,-47.80,-32.38,-52.66,-48.29,-54.02
2022/01/27 02:11:58+0000,-38.79,-47.39,-32.58,-52.52,-48.74,-54.11
2022/01/27 02:12:51+0000,-38.51,-47.30,-31.97,-52.70,-47.04,-54.22
2022/01/27 02:13:43+0000,-38.58,-44.59,-32.86,-52.25,-47.78,-54.29
2022/01/27 02:14:35+0000,-39.06,-47.97,-32.55,-52.64,-47.56,-54.91
2022/01/27 02:15:27+0000,-39.29,-46.57,-32.08,-52.86,-48.01,-54.35
2022/01/27 02:16:19+0000,-38.98,-44.65,-32.42,-52.39,-48.08,-54.59
2022/01/27 02:17:11+0000,-38.77,-44.82,-32.87,-52.56,-47.63,-54.11
2022/01/27 02:18:03+0000,-38.08,-45.70,-32.23,-52.30,-48.34,-54.55
2022/01/27 02:18:55+0000,-40.26,-47.89,-33.21,-52.57,-47.86,-54.17
2022/01/27 02:19:47+0000,-39.77,-45.56,-32.68,-52.89,-48.33,-54.66
2022/01/27 02:20:39+0000,-37.69,-44.65,-32.95,-52.67,-48.55,-55.02
2022/01/27 02:21:37+0000,-40.29,-47.90,-32.75,-53.31,-48.59,-54.42
2022/01/27 02:22:29+0000,-39.82,-46.39,-33.20,-52.43,-47.90,-54.53
2022/01/27 02:23:21+0000,-39.43,-48.40,-31.52,-52.82,-47.80,-54.56
2022/01/27 02:24:13+0000,-38.84,-46.83,-32.43,-52.73,-47.85,-54.77
2022/01/27 02:25:05+0000,-40.31,-48.30,-32.25,-52.56,-47.59,-54.44
2022/01/27 02:25:57+0000,-39.94,-47.73,-32.20,-51.76,-47.95,-54.65
2022/01/27 02:26:49+0000,-39.37,-46.42,-32.09,-52.68,-47.99,-54.26
2022/01/27 02:27:42+0000,-39.26,-47.14,-31.91,-52.89,-48.25,-54.09
2022/01/27 02:28:34+0000,-38.99,-47.33,-32.63,-53.02,-47.91,-54.50
2022/01/27 02:29:26+0000,-38.78,-47.82,-32.20,-52.92,-47.84,-54.09
2022/01/27 02:30:18+0000,-38.67,-46.26,-32.39,-52.54,-46.95,-54.11
2022/01/27 02:31:21+0000,-39.12,-48.41,-31.88,-52.80,-47.75,-55.21
2022/01/27 02:32:13+0000,-38.60,-46.65,-32.80,-52.58,-48.36,-54.18
2022/01/27 02:33:05+0000,-38.57,-47.70,-32.41,-52.98,-48.12,-54.59
2022/01/27 02:33:57+0000,-38.24,-46.93,-32.37,-52.70,-47.90,-54.62
2022/01/27 02:34:49+0000,-39.34,-46.28,-33.03,-52.57,-47.94,-54.00
2022/01/27 02:35:41+0000,-39.48,-46.55,-31.77,-52.99,-47.87,-54.37
2022/01/27 02:36:33+0000,-39.92,-46.08,-32.06,-52.16,-48.02,-54.71
2022/01/27 02:37:25+0000,-39.39,-46.65,-32.38,-52.81,-47.72,-54.78
2022/01/27 02:38:17+0000,-38.57,-42.59,-32.76,-52.88,-47.72,-53.82
2022/01/27 02:39:09+0000,-40.19,-43.92,-32.36,-52.98,-48.19,-54.63
2022/01/27 02:40:01+0000,-39.45,-46.00,-31.87,-53.70,-47.91,-54.46
2022/01/27 02:40:59+0000,-38.48,-46.27,-32.28,-52.71,-47.61,-54.27
2022/01/27 02:41:51+0000,-39.76,-48.49,-32.62,-53.14,-47.55,-53.93
2022/01/27 02:42:43+0000,-39.21,-45.64,-32.41,-52.73,-46.77,-54.91
2022/01/27 02:43:35+0000,-39.43,-42.49,-32.45,-53.52,-48.53,-54.19
2022/01/27 02:44:27+0000,-38.63,-45.55,-31.56,-52.32,-47.70,-54.63
2022/01/27 02:45:19+0000,-40.13,-45.52,-32.02,-52.77,-47.21,-54.30
2022/01/27 02:46:11+0000,-39.70,-46.23,-32.24,-53.04,-48.14,-53.67
2022/01/27 02:47:03+0000,-38.92,-43.94,-32.21,-52.96,-48.43,-55.21
2022/01/27 02:47:55+0000,-39.13,-36.05,-31.93,-52.77,-48.22,-54.24
2022/01/27 02:48:47+0000,-38.79,-45.91,-32.36,-53.37,-47.93,-54.39
2022/01/27 02:49:40+0000,-38.38,-46.89,-32.73,-53.00,-47.92,-54.27
2022/01/27 02:50:32+0000,-40.04,-48.21,-32.29,-53.09,-48.42,-55.03
2022/01/27 02:51:30+0000,-39.17,-43.72,-32.40,-52.68,-48.09,-53.96
2022/01/27 02:52:22+0000,-39.67,-48.19,-32.16,-52.67,-47.78,-54.67
2022/01/27 02:53:14+0000,-38.28,-46.76,-32.24,-52.27,-48.04,-54.31
2022/01/27 02:54:06+0000,-38.43,-46.09,-32.89,-52.60,-47.92,-53.91
2022/01/27 02:54:58+0000,-39.59,-45.69,-32.31,-51.98,-47.66,-54.87
2022/01/27 02:55:50+0000,-39.37,-46.96,-32.85,-52.31,-47.83,-53.94
2022/01/27 02:56:42+0000,-38.49,-46.48,-32.35,-52.12,-46.89,-53.51
2022/01/27 02:57:34+0000,-38.31,-47.31,-32.15,-52.63,-46.49,-53.65
2022/01/27 02:58:26+0000,-39.01,-47.30,-32.38,-51.69,-47.31,-53.21
2022/01/27 02:59:18+0000,-38.38,-46.04,-32.13,-52.86,-47.76,-53.14
2022/01/27 03:00:11+0000,-37.64,-46.57,-32.33,-51.57,-46.99,-53.69
2022/01/27 03:01:09+0000,-39.63,-47.19,-32.27,-51.92,-46.88,-53.52
2022/01/27 03:02:01+0000,-38.42,-47.73,-32.11,-51.60,-46.39,-52.76
2022/01/27 03:02:53+0000,-39.20,-47.46,-32.37,-52.09,-46.62,-53.69
2022/01/27 03:03:45+0000,-38.79,-47.61,-31.90,-52.81,-46.33,-53.89
2022/01/27 03:04:38+0000,-38.29,-47.51,-31.92,-52.08,-46.70,-53.99
2022/01/27 03:05:30+0000,-39.57,-47.02,-32.00,-52.03,-46.90,-53.26
2022/01/27 03:06:22+0000,-38.05,-48.10,-32.43,-52.00,-47.03,-52.94
2022/01/27 03:07:14+0000,-38.70,-47.28,-32.04,-52.34,-46.90,-52.75
2022/01/27 03:08:06+0000,-38.43,-47.97,-32.01,-52.53,-46.98,-53.19
2022/01/27 03:08:58+0000,-38.83,-47.77,-32.10,-52.51,-46.51,-53.67
2022/01/27 03:09:50+0000,-38.39,-47.67,-32.50,-52.30,-46.60,-53.69
2022/01/27 03:10:42+0000,-38.55,-46.68,-31.27,-52.07,-46.71,-53.41
2022/01/27 03:11:40+0000,-38.33,-46.94,-31.97,-52.08,-46.16,-53.60
2022/01/27 03:12:32+0000,-38.15,-47.56,-31.82,-52.21,-46.84,-53.81
2022/01/27 03:13:24+0000,-37.49,-46.58,-32.51,-51.78,-47.00,-53.56
2022/01/27 03:14:16+0000,-38.59,-46.77,-31.52,-51.96,-47.45,-53.68
2022/01/27 03:15:08+0000,-38.59,-46.71,-31.45,-51.94,-47.15,-53.98
2022/01/27 03:16:00+0000,-39.41,-46.76,-31.73,-51.98,-47.59,-53.76
2022/01/27 03:16:52+0000,-37.91,-46.13,-32.05,-51.36,-46.35,-53.08
2022/01/27 03:17:44+0000,-39.11,-46.07,-31.92,-51.94,-47.07,-54.09
2022/01/27 03:18:36+0000,-38.37,-47.44,-31.80,-52.07,-47.02,-53.38
2022/01/27 03:19:28+0000,-39.77,-45.84,-31.66,-52.04,-46.99,-53.57
2022/01/27 03:20:21+0000,-39.35,-46.19,-31.99,-51.67,-46.54,-53.60
2022/01/27 03:21:24+0000,-38.98,-44.65,-32.50,-51.20,-47.41,-53.57
2022/01/27 03:22:16+0000,-38.42,-45.29,-32.03,-51.29,-47.06,-53.76
2022/01/27 03:23:08+0000,-38.70,-46.10,-32.01,-51.68,-46.61,-53.04
2022/01/27 03:24:00+0000,-40.07,-45.20,-32.08,-51.85,-46.56,-53.83
2022/01/27 03:24:52+0000,-39.39,-45.55,-31.43,-51.76,-46.92,-54.21
2022/01/27 03:25:44+0000,-39.40,-45.21,-31.72,-51.26,-46.20,-54.04
2022/01/27 03:26:36+0000,-38.73,-45.17,-31.41,-51.09,-46.51,-53.93
2022/01/27 03:27:28+0000,-39.10,-45.15,-30.95,-51.84,-47.06,-54.15
2022/01/27 03:28:20+0000,-38.55,-47.12,-31.00,-51.92,-46.76,-53.49
2022/01/27 03:29:12+0000,-39.08,-46.18,-31.19,-52.32,-46.25,-54.44
2022/01/27 03:30:05+0000,-38.60,-47.06,-31.44,-52.10,-46.92,-54.57
2022/01/27 03:31:04+0000,-39.43,-47.42,-31.13,-51.75,-46.01,-54.12
2022/01/27 03:31:56+0000,-38.96,-45.72,-31.42,-52.09,-46.33,-54.51
2022/01/27 03:32:48+0000,-39.72,-47.26,-31.39,-51.77,-46.39,-53.57
2022/01/27 03:33:40+0000,-38.03,-47.72,-31.31,-51.63,-46.79,-53.65
2022/01/27 03:34:32+0000,-38.52,-46.67,-31.21,-51.73,-46.21,-53.70
2022/01/27 03:35:24+0000,-38.39,-46.29,-31.73,-52.01,-46.51,-53.13
2022/01/27 03:36:16+0000,-38.87,-47.43,-31.34,-52.19,-46.26,-53.44
2022/01/27 03:37:08+0000,-38.59,-47.11,-31.19,-51.15,-47.21,-53.82
2022/01/27 03:38:00+0000,-38.72,-47.62,-31.63,-52.89,-46.50,-53.73
2022/01/27 03:38:52+0000,-37.44,-46.57,-31.88,-51.18,-47.22,-54.43
2022/01/27 03:39:44+0000,-38.19,-46.95,-31.46,-51.90,-47.11,-53.77
2022/01/27 03:40:36+0000,-38.90,-46.96,-31.20,-51.49,-46.75,-54.36
2022/01/27 03:41:35+0000,-38.37,-46.39,-31.92,-51.73,-47.11,-54.17
2022/01/27 03:42:27+0000,-38.44,-46.43,-31.20,-51.77,-47.45,-54.22
2022/01/27 03:43:19+0000,-37.76,-46.86,-31.36,-51.99,-46.78,-53.93
2022/01/27 03:44:11+0000,-38.06,-47.09,-31.32,-52.26,-47.26,-54.62
2022/01/27 03:45:03+0000,-38.29,-45.94,-31.56,-51.94,-46.41,-54.40
2022/01/27 03:45:55+0000,-38.31,-46.40,-31.62,-51.76,-47.00,-54.18
2022/01/27 03:46:47+0000,-38.57,-46.23,-32.09,-52.08,-47.26,-54.33
2022/01/27 03:47:39+0000,-37.85,-46.60,-31.71,-51.84,-46.80,-53.47
2022/01/27 03:48:31+0000,-38.60,-46.65,-31.79,-51.49,-46.90,-54.24
2022/01/27 03:49:23+0000,-38.54,-45.48,-31.15,-51.53,-46.64,-54.15
2022/01/27 03:50:15+0000,-37.99,-46.17,-31.67,-53.41,-46.73,-53.51
2022/01/27 03:51:14+0000,-38.05,-45.38,-32.12,-51.29,-46.58,-54.12
2022/01/27 03:52:06+0000,-38.54,-46.02,-31.53,-51.95,-47.06,-54.00
2022/01/27 03:52:58+0000,-37.88,-45.69,-31.62,-51.73,-47.26,-54.03
2022/01/27 03:53:50+0000,-36.86,-43.61,-30.75,-51.43,-47.03,-53.35
2022/01/27 03:54:42+0000,-38.73,-43.26,-31.68,-52.01,-46.49,-53.94
2022/01/27 03:55:34+0000,-38.27,-46.91,-30.96,-52.05,-47.46,-53.64
2022/01/27 03:56:26+0000,-37.89,-46.97,-31.99,-52.07,-46.84,-53.81
2022/01/27 03:57:18+0000,-38.62,-43.25,-31.23,-51.65,-47.34,-54.22
2022/01/27 03:58:10+0000,-38.14,-43.12,-31.39,-51.56,-47.12,-54.49
2022/01/27 03:59:02+0000,-38.52,-45.97,-31.10,-51.06,-47.17,-53.79
2022/01/27 03:59:54+0000,-38.45,-45.97,-31.15,-52.37,-47.18,-53.93
2022/01/27 04:00:46+0000,-38.76,-44.01,-31.59,-51.61,-46.91,-53.52
2022/01/27 04:01:50+0000,-37.83,-46.24,-31.27,-52.00,-47.83,-54.05
2022/01/27 04:02:42+0000,-38.81,-43.77,-31.35,-51.14,-46.84,-53.48
2022/01/27 04:03:34+0000,-40.26,-46.08,-31.90,-51.83,-47.45,-53.28
2022/01/27 04:04:26+0000,-38.87,-46.28,-31.56,-51.50,-46.54,-53.94
2022/01/27 04:05:18+0000,-38.31,-44.19,-31.31,-51.40,-47.61,-53.33
2022/01/27 04:06:10+0000,-38.69,-44.16,-31.44,-51.78,-47.12,-53.72
2022/01/27 04:07:02+0000,-38.59,-45.71,-31.33,-51.89,-47.92,-53.63
2022/01/27 04:07:55+0000,-38.78,-46.64,-31.33,-51.71,-47.59,-54.22
2022/01/27 04:08:47+0000,-37.86,-44.03,-31.64,-51.86,-46.71,-54.13
2022/01/27 04:09:39+0000,-39.63,-44.10,-31.44,-51.73,-47.38,-53.50
2022/01/27 04:10:31+0000,-38.62,-46.16,-31.69,-51.90,-47.61,-53.85
2022/01/27 04:11:29+0000,-38.19,-46.49,-31.87,-51.87,-47.13,-53.98
2022/01/27 04:12:21+0000,-37.30,-46.03,-31.43,-51.42,-47.89,-53.69
2022/01/27 04:13:13+0000,-38.84,-46.57,-31.58,-52.30,-47.10,-54.26
2022/01/27 04:14:06+0000,-38.61,-47.18,-31.66,-51.96,-46.89,-53.75
2022/01/27 04:14:58+0000,-38.98,-46.83,-31.96,-51.82,-46.82,-53.73
2022/01/27 04:15:50+0000,-38.22,-43.94,-31.37,-51.53,-47.28,-53.52
2022/01/27 04:16:42+0000,-38.08,-43.73,-31.18,-51.90,-47.15,-53.49
2022/01/27 04:17:34+0000,-39.10,-45.34,-31.09,-52.15,-46.93,-53.98
2022/01/27 04:18:26+0000,-37.22,-45.28,-31.89,-52.01,-46.51,-54.41
2022/01/27 04:19:18+0000,-38.15,-43.75,-31.35,-51.85,-46.88,-53.40
2022/01/27 04:20:10+0000,-39.25,-43.64,-30.82,-51.42,-48.11,-53.21
2022/01/27 04:21:07+0000,-38.90,-43.87,-31.58,-51.78,-48.01,-53.37
2022/01/27 04:21:59+0000,-39.05,-45.01,-31.13,-51.74,-46.90,-53.57
2022/01/27 04:22:51+0000,-37.74,-46.68,-31.85,-51.80,-46.93,-53.88
2022/01/27 04:23:43+0000,-39.70,-43.75,-31.35,-51.55,-47.25,-53.53
2022/01/27 04:24:35+0000,-38.68,-46.06,-31.32,-51.57,-47.08,-53.63
2022/01/27 04:25:27+0000,-37.66,-46.06,-31.10,-51.45,-46.88,-53.55
2022/01/27 04:26:20+0000,-37.67,-46.96,-31.41,-51.78,-46.88,-53.77
2022/01/27 04:27:12+0000,-38.73,-46.71,-31.08,-52.24,-47.64,-53.82
2022/01/27 04:28:04+0000,-38.04,-45.97,-31.29,-51.94,-48.11,-53.07
2022/01/27 04:28:56+0000,-38.24,-45.74,-31.29,-51.76,-47.22,-53.42
2022/01/27 04:29:48+0000,-36.41,-46.90,-31.67,-52.29,-47.38,-54.06
2022/01/27 04:30:40+0000,-38.93,-47.11,-31.16,-52.03,-48.28,-54.00
2022/01/27 04:31:38+0000,-37.97,-46.30,-31.65,-51.72,-46.72,-54.17
2022/01/27 04:32:30+0000,-38.90,-45.96,-30.88,-52.08,-47.12,-53.11
2022/01/27 04:33:22+0000,-36.74,-46.21,-31.60,-51.97,-47.07,-54.16
2022/01/27 04:34:14+0000,-39.63,-46.43,-31.39,-51.89,-47.66,-53.45
2022/01/27 04:35:06+0000,-38.08,-46.23,-31.85,-51.49,-47.61,-54.02
2022/01/27 04:35:58+0000,-37.32,-45.37,-31.54,-52.29,-47.52,-54.00
2022/01/27 04:36:51+0000,-37.46,-46.88,-30.95,-51.47,-47.49,-53.63
2022/01/27 04:37:43+0000,-38.11,-46.08,-31.55,-52.19,-47.62,-53.62
2022/01/27 04:38:35+0000,-38.57,-46.02,-31.47,-51.94,-46.98,-53.68
2022/01/27 04:39:27+0000,-38.65,-45.61,-31.64,-52.06,-47.07,-53.55
2022/01/27 04:40:19+0000,-38.80,-46.51,-31.20,-52.15,-47.13,-53.71
2022/01/27 04:41:22+0000,-37.35,-46.69,-31.58,-51.73,-46.90,-54.04
2022/01/27 04:42:14+0000,-38.23,-46.49,-31.24,-51.40,-47.65,-53.50
2022/01/27 04:43:06+0000,-38.89,-47.51,-30.83,-51.78,-46.86,-53.74
2022/01/27 04:43:58+0000,-38.55,-46.82,-31.54,-51.87,-45.97,-53.50
2022/01/27 04:44:50+0000,-39.09,-45.86,-31.18,-51.73,-46.72,-54.16
2022/01/27 04:45:42+0000,-38.47,-45.91,-31.82,-51.41,-46.19,-53.52
2022/01/27 04:46:34+0000,-39.84,-47.12,-31.52,-51.32,-46.44,-54.43